When you browse on this site, cookies collect data to enhance your experience and personalize the content and advertising you see.
Visit our Privacy Policy to learn more. By continuing to use the site, you agree to this use of cookies and data.
  • în România
  • Lista ţărilor
  • Pe 7 zile
  • Temperatura apei
  • Meteo pe hartă
  • Widget-uri
  • user-avatar
    Intrare

    Meteo pe oră la Dodoma

    Astăzi, 3 Aprilie, Vineri

    Timp Temperatura Precipitaţii Vânt Presiune Umiditate
    00:00 +20°C° 0 mm 3 m/s 665 mmHg 93%
    01:00 +20°C° 0 mm 2 m/s 664 mmHg 93%
    02:00 +20°C° 0 mm 2 m/s 664 mmHg 93%
    03:00 +20°C° 0.1 mm 2 m/s 664 mmHg 94%
    04:00 +20°C° 0.1 mm 2 m/s 665 mmHg 94%
    05:00 +21°C° 0.1 mm 1 m/s 665 mmHg 95%
    06:00 +20°C° 0.1 mm 2 m/s 665 mmHg 93%
    07:00 +21°C° 0.1 mm 2 m/s 666 mmHg 91%
    08:00 +21°C° 0.1 mm 2 m/s 667 mmHg 89%
    09:00 +22°C° 0.6 mm 3 m/s 667 mmHg 86%
    10:00 +24°C° 0.6 mm 3 m/s 667 mmHg 82%
    11:00 +25°C° 0.6 mm 3 m/s 667 mmHg 78%
    12:00 +25°C° 0.8 mm 3 m/s 666 mmHg 77%
    13:00 +26°C° 0.8 mm 3 m/s 665 mmHg 76%
    14:00 +26°C° 0.8 mm 3 m/s 665 mmHg 75%
    15:00 +26°C° 0.7 mm 3 m/s 665 mmHg 79%
    16:00 +25°C° 0.7 mm 2 m/s 665 mmHg 83%
    17:00 +24°C° 0.7 mm 2 m/s 664 mmHg 86%
    18:00 +23°C° 0.9 mm 2 m/s 665 mmHg 88%
    19:00 +21°C° 0.9 mm 3 m/s 665 mmHg 90%
    20:00 +20°C° 0.9 mm 3 m/s 665 mmHg 92%
    21:00 +20°C° 0.2 mm 3 m/s 665 mmHg 93%
    22:00 +19°C° 0.2 mm 2 m/s 665 mmHg 94%
    23:00 +19°C° 0.2 mm 2 m/s 665 mmHg 95%

    Mâine, 4 Aprilie, Sâmbătă

    Timp Temperatura Precipitaţii Vânt Presiune Umiditate
    00:00 +19°C° 0 mm 2 m/s 665 mmHg 94%
    01:00 +19°C° 0 mm 2 m/s 665 mmHg 94%
    02:00 +20°C° 0 mm 1 m/s 665 mmHg 94%
    03:00 +20°C° 0 mm 1 m/s 665 mmHg 93%
    04:00 +20°C° 0 mm 1 m/s 665 mmHg 92%
    05:00 +20°C° 0 mm 1 m/s 665 mmHg 91%
    06:00 +20°C° 0 mm 1 m/s 666 mmHg 90%
    07:00 +21°C° 0 mm 1 m/s 667 mmHg 88%
    08:00 +21°C° 0 mm 1 m/s 667 mmHg 86%
    09:00 +22°C° 0 mm 1 m/s 667 mmHg 82%
    10:00 +23°C° 0 mm 1 m/s 667 mmHg 78%
    11:00 +24°C° 0 mm 2 m/s 667 mmHg 74%
    12:00 +25°C° 0 mm 2 m/s 666 mmHg 72%
    13:00 +26°C° 0 mm 2 m/s 666 mmHg 69%
    14:00 +27°C° 0 mm 2 m/s 666 mmHg 66%
    15:00 +26°C° 0 mm 2 m/s 665 mmHg 70%
    16:00 +25°C° 0 mm 2 m/s 665 mmHg 74%
    17:00 +24°C° 0 mm 2 m/s 665 mmHg 78%
    18:00 +23°C° 0 mm 2 m/s 665 mmHg 81%
    19:00 +21°C° 0 mm 2 m/s 666 mmHg 83%
    20:00 +20°C° 0 mm 2 m/s 666 mmHg 86%
    21:00 +20°C° 0 mm 2 m/s 666 mmHg 88%
    22:00 +19°C° 0 mm 2 m/s 666 mmHg 91%
    23:00 +19°C° 0 mm 2 m/s 666 mmHg 93%

    Poimâine, 5 Aprilie, Duminică

    Timp Temperatura Precipitaţii Vânt Presiune Umiditate
    00:00 +19°C° 0 mm 2 m/s 665 mmHg 93%
    01:00 +20°C° 0 mm 1 m/s 665 mmHg 94%
    02:00 +20°C° 0 mm 1 m/s 665 mmHg 94%
    03:00 +19°C° 0 mm 1 m/s 665 mmHg 94%
    04:00 +19°C° 0 mm 1 m/s 665 mmHg 93%
    05:00 +19°C° 0 mm 1 m/s 665 mmHg 92%
    06:00 +21°C° 0 mm 1 m/s 666 mmHg 87%
    07:00 +22°C° 0 mm 1 m/s 667 mmHg 81%
    08:00 +23°C° 0 mm 1 m/s 669 mmHg 76%
    09:00 +25°C° 0 mm 1 m/s 668 mmHg 70%
    10:00 +26°C° 0 mm 1 m/s 668 mmHg 65%
    11:00 +28°C° 0 mm 2 m/s 668 mmHg 59%
    12:00 +28°C° 0 mm 1 m/s 668 mmHg 58%
    13:00 +29°C° 0 mm 1 m/s 667 mmHg 57%
    14:00 +29°C° 0 mm 1 m/s 666 mmHg 56%
    15:00 +28°C° 0.1 mm 1 m/s 666 mmHg 63%
    16:00 +27°C° 0.1 mm 2 m/s 666 mmHg 70%
    17:00 +26°C° 0.1 mm 2 m/s 665 mmHg 77%
    18:00 +24°C° 0.4 mm 2 m/s 666 mmHg 81%
    19:00 +23°C° 0.4 mm 2 m/s 666 mmHg 85%
    20:00 +21°C° 0.4 mm 2 m/s 666 mmHg 90%
    21:00 +21°C° 0.2 mm 2 m/s 666 mmHg 91%
    22:00 +20°C° 0.2 mm 2 m/s 666 mmHg 93%
    23:00 +20°C° 0.2 mm 2 m/s 666 mmHg 95%

    6 Aprilie, Luni

    Timp Temperatura Precipitaţii Vânt Presiune Umiditate
    00:00 +19°C° 0 mm 2 m/s 665 mmHg 95%
    01:00 +19°C° 0 mm 2 m/s 665 mmHg 96%
    02:00 +19°C° 0 mm 2 m/s 665 mmHg 96%
    03:00 +20°C° 0 mm 1 m/s 665 mmHg 97%
    04:00 +20°C° 0 mm 1 m/s 665 mmHg 97%
    05:00 +19°C° 0 mm 1 m/s 665 mmHg 97%
    06:00 +21°C° 0 mm 1 m/s 666 mmHg 93%
    07:00 +22°C° 0 mm 1 m/s 667 mmHg 89%
    08:00 +23°C° 0 mm 1 m/s 668 mmHg 85%
    09:00 +25°C° 0 mm 1 m/s 668 mmHg 78%
    10:00 +26°C° 0 mm 1 m/s 668 mmHg 72%
    11:00 +28°C° 0 mm 1 m/s 668 mmHg 65%
    12:00 +28°C° 0.6 mm 1 m/s 667 mmHg 65%
    13:00 +29°C° 0.6 mm 1 m/s 666 mmHg 64%
    14:00 +27°C° 0.6 mm 0 m/s 665 mmHg 64%
    15:00 +26°C° 0.2 mm 0 m/s 665 mmHg 68%
    16:00 +27°C° 0.2 mm 1 m/s 665 mmHg 72%
    17:00 +26°C° 0.2 mm 1 m/s 665 mmHg 76%
    18:00 +25°C° 1.1 mm 1 m/s 665 mmHg 81%
    19:00 +24°C° 1.1 mm 1 m/s 665 mmHg 86%
    20:00 +22°C° 1.1 mm 1 m/s 665 mmHg 90%
    21:00 +22°C° 0.3 mm 1 m/s 665 mmHg 91%
    22:00 +21°C° 0.3 mm 2 m/s 666 mmHg 92%
    23:00 +20°C° 0.3 mm 2 m/s 666 mmHg 92%

    7 Aprilie, Marţi

    Timp Temperatura Precipitaţii Vânt Presiune Umiditate
    00:00 +20°C° 0.8 mm 2 m/s 665 mmHg 93%
    01:00 +21°C° 0.8 mm 1 m/s 665 mmHg 94%
    02:00 +21°C° 0.8 mm 1 m/s 665 mmHg 95%
    03:00 +20°C° 0.3 mm 1 m/s 665 mmHg 96%
    04:00 +20°C° 0.3 mm 1 m/s 665 mmHg 96%
    05:00 +20°C° 0.3 mm 1 m/s 665 mmHg 97%
    06:00 +21°C° 0.9 mm 1 m/s 666 mmHg 95%
    07:00 +22°C° 0.9 mm 1 m/s 667 mmHg 92%
    08:00 +23°C° 0.9 mm 1 m/s 668 mmHg 90%
    09:00 +23°C° 1.8 mm 2 m/s 667 mmHg 90%
    10:00 +23°C° 1.8 mm 2 m/s 667 mmHg 91%
    11:00 +22°C° 1.8 mm 3 m/s 667 mmHg 91%
    12:00 +23°C° 0.5 mm 2 m/s 666 mmHg 91%
    13:00 +23°C° 0.5 mm 2 m/s 665 mmHg 91%
    14:00 +23°C° 0.5 mm 1 m/s 664 mmHg 91%
    15:00 +23°C° 0 mm 1 m/s 664 mmHg 91%
    16:00 +23°C° 0 mm 1 m/s 664 mmHg 91%
    17:00 +23°C° 0 mm 1 m/s 664 mmHg 91%
    18:00 +22°C° 0 mm 1 m/s 665 mmHg 92%
    19:00 +22°C° 0 mm 1 m/s 665 mmHg 93%
    20:00 +21°C° 0 mm 1 m/s 666 mmHg 95%
    21:00 +21°C° 0 mm 1 m/s 666 mmHg 95%
    22:00 +21°C° 0 mm 1 m/s 666 mmHg 96%
    23:00 +20°C° 0 mm 1 m/s 666 mmHg 96%

    8 Aprilie, Miercuri

    Timp Temperatura Precipitaţii Vânt Presiune Umiditate
    00:00 +20°C° 0.1 mm 1 m/s 665 mmHg 96%
    01:00 +20°C° 0.1 mm 1 m/s 665 mmHg 97%
    02:00 +20°C° 0.1 mm 1 m/s 665 mmHg 97%
    03:00 +20°C° 0.3 mm 1 m/s 665 mmHg 97%
    04:00 +18°C° 0.3 mm 0 m/s 665 mmHg 97%
    05:00 +18°C° 0.3 mm 0 m/s 665 mmHg 97%
    06:00 +19°C° 0.1 mm 0 m/s 666 mmHg 95%
    07:00 +19°C° 0.1 mm 0 m/s 667 mmHg 93%
    08:00 +22°C° 0.1 mm 1 m/s 667 mmHg 91%
    09:00 +24°C° 0.2 mm 1 m/s 668 mmHg 85%
    10:00 +25°C° 0.2 mm 1 m/s 668 mmHg 79%
    11:00 +27°C° 0.2 mm 1 m/s 668 mmHg 73%
    12:00 +27°C° 0.1 mm 1 m/s 667 mmHg 72%
    13:00 +27°C° 0.1 mm 1 m/s 666 mmHg 70%
    14:00 +28°C° 0.1 mm 1 m/s 665 mmHg 68%
    15:00 +27°C° 0.6 mm 1 m/s 665 mmHg 74%
    16:00 +26°C° 0.6 mm 2 m/s 665 mmHg 79%
    17:00 +25°C° 0.6 mm 2 m/s 665 mmHg 84%
    18:00 +24°C° 0.4 mm 2 m/s 665 mmHg 87%
    19:00 +23°C° 0.4 mm 2 m/s 665 mmHg 89%
    20:00 +21°C° 0.4 mm 2 m/s 665 mmHg 92%
    21:00 +21°C° 0 mm 2 m/s 665 mmHg 93%
    22:00 +20°C° 0 mm 2 m/s 665 mmHg 94%
    23:00 +20°C° 0 mm 2 m/s 665 mmHg 95%
    Arată mai mult